Regional Weather Roundup
Issued by NWS

Home | Current Version | Previous Version | Graphics & Text | Print | Product List | Glossary On
Versions: 1 2 3 4 5 6 7 8 9 10 11 12 13 14 15 16 17 18 19 20 21 22 23 24 25 26 27 28 29 30 31 32 33 34 35 36 37 38 39 40 41 42 43 44 45 46 47 48 49 50
477
ASUS44 KLIX 290905
RWRLA
LOUISIANA WEATHER ROUNDUP
NATIONAL WEATHER SERVICE NEW ORLEANS LA
400 AM CDT TUE JUL 29 2014

NOTE: "FAIR" INDICATES FEW OR NO CLOUDS BELOW 12,000 FEET WITH NO
      SIGNIFICANT WEATHER AND/OR OBSTRUCTIONS TO VISIBILITY.
      SKY/WX - SKY CONDITION AND SIGNIFICANT WEATHER.
      TMP - AIR TEMPERATURE.    DP   - DEWPOINT TEMPERATURE.
      RH  - RELATIVE HUMIDITY.  PRES - PRESSURE.
      HX  - HEAT INDEX.         WCI  - WIND CHILL INDEX.

*  THESE STATIONS ARE NOT NWS OR FAA STATIONS AND ARE NOT UNDER
   NWS QUALITY CONTROL.

LAZ040-048-061>063-065-066-069-291000-
SOUTHEAST LOUISIANA

CITY           SKY/WX    TMP DP  RH WIND       PRES   REMARKS
N.O. AUDUBON     N/A     82  70  67 MISG        N/A
N.O. INTL ARPT MOCLDY    81  69  67 NE14      29.98F
N.O. LAKEFRONT PTCLDY    82  70  66 NE16      29.98F
N.O. DOWNTOWN* FAIR      82  66  57 NE6       29.98F
SLIDELL        CLEAR     74  71  91 CALM      29.98F
BATON ROUGE    PTCLDY    75  72  90 NW3       30.02R
BOOTHVILLE     CLOUDY    80  76  87 NW7       29.97F
BELLE CHASSE   PTCLDY    79  70  74 NE6       29.97F
BOGALUSA*      FAIR      72  68  86 CALM      30.00F
GALLIANO*      NOT AVBL
NEW ROADS*     PTSUNNY   75  72  91 N5        30.02S
GONZALES*      PTSUNNY   76  76 100 NW3       30.00R
HAMMOND*       PTCLDY    75  70  83 CALM      30.02R
HOUMA*         MOCLDY    77  71  81 NW3       29.99R
PORT FOURCHON* PTSUNNY   82  75  78 NW7       29.99F

$$

LAZ041-044-053-054-291000-
SOUTHWEST LOUISIANA

CITY           SKY/WX    TMP DP  RH WIND       PRES   REMARKS
LAKE CHARLES   MOCLDY    79  72  79 N7        30.01S
LAFAYETTE      NOT AVBL
PATTERSON      CLOUDY    77  73  88 W5        30.04R
SALT POINT       N/A     82  76  81 CALM      30.00R
NEW IBERIA     CLOUDY    79  75  87 N10       29.99F
CHENAULT AIRPK NOT AVBL

$$

LAZ027-028-291000-
CENTRAL LOUISIANA

CITY           SKY/WX    TMP DP  RH WIND       PRES   REMARKS
FORT POLK      PTCLDY    75  72  90 N5        30.04R
ALEXANDRIA INT MOCLDY    75  70  84 NE6       30.01F
ALEXANDRIA     MOCLDY    74  69  85 NE3       30.03F

$$

LAZ001-002-291000-
NORTHWEST LOUISIANA

CITY           SKY/WX    TMP DP  RH WIND       PRES   REMARKS
SHREVEPORT     MOCLDY    74  70  87 CALM      30.05F
BARKSDALE AFB  CLOUDY    74  71  88 NE2       30.06S
DTN SHREVEPORT PTCLDY    74  70  87 CALM      30.06S

$$

LAZ014-016-291000-
NORTHEAST LOUISIANA

CITY           SKY/WX    TMP DP  RH WIND       PRES   REMARKS
MONROE         PTCLDY    69  66  90 CALM      30.06S
TALLULAH       CLEAR     68  65  90 N3        30.03S

$$




USA.gov is the U.S. government's official web portal to all federal, state and local government web resources and services.